Weather History for KUNI - December, 2012

Change the Weather History Date:

Thursday, December 6, 2012

  Actual Average (KPKB) Record (KPKB)
Temperature  
Mean Temperature 38 °F 38 °F  
Max Temperature 48 °F 46 °F 74 °F (1998)
Min Temperature 27 °F 29 °F 5 °F (1977)
Degree Days  
Heating Degree Days 28 27  
Month to date heating degree days 159  
Cooling Degree Days 0 0  
Month to date cooling degree days 0  
Moisture  
Dew Point 32 °F    
Average Humidity 71    
Maximum Humidity 93    
Minimum Humidity 50    
Precipitation  
Precipitation 0.00 in 0.10 in 0.93 in (2014)
Month to date precipitation 0.63  
Sea Level Pressure  
Sea Level Pressure 30.10 in    
Wind  
Wind Speed 3 mph (East)    
Max Wind Speed 7 mph    
Max Gust Speed -    
Visibility 10 miles    
Events Rain    
T = Trace of Precipitation, MM = Missing Value Source: NWS Daily Summary

Daily Weather History Graph

Daily Weather History Graph

Search for Another Location

Airport or City:

Trip Planner

Search our weather history database for the weather conditions in past years. The results will help you decide how hot, cold, wet, or windy it might be!

Date:

Astronomy

Dec. 06, 2012 Rise Set
Actual Time 7:34 AM EST 5:05 PM EST
Civil Twilight 7:04 AM EST 5:35 PM EST
Nautical Twilight 6:31 AM EST 6:09 PM EST
Astronomical Twilight 5:58 AM EST 6:41 PM EST
Moon No Moon Rise 12:28 PM EST (12/6)
Length of Visible Light 10h 30m
Length of Day
9h 31m
Waning Gibbous, 49% of the Moon is Illuminated
Dec 6
Waning Gibbous
Dec 13
New
Dec 20
First Quarter
Dec 28
Full
Jan 4
Last Quarter

Hourly Weather History & Observations

Time (EST) Temp. Windchill Dew Point Humidity Pressure Visibility Wind Dir Wind Speed Gust Speed Precip Events Conditions
8:35 AM 27.9 °F 24.0 °F 23.4 °F 83% 30.23 in 10.0 mi ENE 3.5 mph - N/A   Clear
8:55 AM 28.9 °F 22.8 °F 24.3 °F 83% 30.22 in 10.0 mi NE 5.8 mph - N/A   Clear
9:15 AM 30.2 °F 25.4 °F 24.3 °F 79% 30.22 in 10.0 mi NE 4.6 mph - N/A   Clear
9:35 AM 31.5 °F 26.8 °F 25.3 °F 78% 30.22 in 10.0 mi ENE 4.6 mph - N/A   Clear
9:55 AM 32.7 °F 27.3 °F 25.5 °F 75% 30.22 in 10.0 mi NE 5.8 mph - N/A   Clear
10:15 AM 34.0 °F 28.0 °F 26.4 °F 74% 30.21 in 10.0 mi NE 6.9 mph - N/A   Clear
10:35 AM 35.8 °F 31.9 °F 27.3 °F 71% 30.21 in 10.0 mi ENE 4.6 mph - N/A   Clear
10:55 AM 37.4 °F - 28.2 °F 69% 30.20 in 10.0 mi Calm Calm - N/A   Clear
11:15 AM 38.3 °F 35.9 °F 28.4 °F 68% 30.19 in 10.0 mi NNE 3.5 mph - N/A   Clear
11:35 AM 40.3 °F 38.2 °F 29.7 °F 66% 30.17 in 10.0 mi NE 3.5 mph - N/A   Clear
11:55 AM 42.4 °F - 30.2 °F 62% 30.16 in 10.0 mi Calm Calm - N/A   Clear
12:15 PM 44.6 °F 42.2 °F 31.1 °F 59% 30.14 in 10.0 mi ESE 4.6 mph - N/A   Clear
12:35 PM 45.7 °F 42.0 °F 30.7 °F 56% 30.12 in 10.0 mi East 6.9 mph - N/A   Clear
12:55 PM 46.0 °F - 30.4 °F 54% 30.11 in 10.0 mi Calm Calm - N/A   Clear
1:15 PM 47.1 °F - 31.3 °F 54% 30.11 in 10.0 mi SSE 3.5 mph - N/A   Clear
1:35 PM 46.4 °F 44.3 °F 30.6 °F 54% 30.10 in 10.0 mi SSE 4.6 mph - N/A   Clear
1:55 PM 47.3 °F - 31.1 °F 53% 30.09 in 10.0 mi SSE 3.5 mph - N/A   Clear
2:15 PM 47.7 °F - 30.6 °F 52% 30.09 in 10.0 mi Calm Calm - N/A   Clear
2:35 PM 48.2 °F - 30.9 °F 51% 30.09 in 10.0 mi SSE 3.5 mph - N/A   Clear
2:55 PM 48.2 °F - 31.6 °F 53% 30.09 in 10.0 mi Calm Calm - N/A   Clear
3:15 PM 48.2 °F - 30.4 °F 50% 30.08 in 10.0 mi SSW 5.8 mph - N/A   Clear
3:35 PM 48.0 °F - 30.9 °F 52% 30.08 in 10.0 mi Calm Calm - N/A   Clear
3:55 PM 48.2 °F - 30.9 °F 51% 30.07 in 10.0 mi Calm Calm - N/A   Clear
4:15 PM 47.3 °F - 31.6 °F 55% 30.08 in 10.0 mi Calm Calm - N/A   Clear
4:35 PM 47.3 °F - 31.1 °F 53% 30.07 in 10.0 mi Calm Calm - N/A   Clear
4:55 PM 46.4 °F - 31.8 °F 57% 30.07 in 10.0 mi Calm Calm - N/A   Clear
5:15 PM 44.8 °F - 32.0 °F 61% 30.07 in 10.0 mi Calm Calm - N/A   Clear
5:35 PM 41.7 °F - 32.2 °F 69% 30.07 in 10.0 mi Calm Calm - N/A   Clear
5:55 PM 40.1 °F - 31.8 °F 72% 30.07 in 10.0 mi Calm Calm - N/A   Clear
6:15 PM 39.6 °F - 32.2 °F 75% 30.06 in 10.0 mi Calm Calm - N/A   Clear
6:35 PM 38.7 °F - 32.4 °F 78% 30.06 in 10.0 mi Calm Calm - N/A   Scattered Clouds
6:55 PM 38.3 °F - 32.0 °F 78% 30.06 in 10.0 mi Calm Calm - N/A   Mostly Cloudy
7:15 PM 38.8 °F - 32.9 °F 79% 30.06 in 10.0 mi Calm Calm - N/A   Overcast
7:35 PM 39.7 °F - 34.5 °F 82% 30.06 in 10.0 mi Calm Calm - N/A   Overcast
7:55 PM 40.5 °F - 35.2 °F 82% 30.06 in 10.0 mi Calm Calm - N/A   Light Drizzle
8:15 PM 40.3 °F - 36.1 °F 85% 30.06 in 10.0 mi Calm Calm - N/A Rain Light Rain
8:35 PM 40.5 °F - 36.0 °F 84% 30.04 in 10.0 mi Calm Calm - N/A   Overcast
8:55 PM 40.3 °F - 37.2 °F 89% 30.05 in 10.0 mi Calm Calm - N/A Rain Light Rain
9:35 PM 41.0 °F - 37.4 °F 87% 30.04 in 10.0 mi Calm Calm - N/A   Overcast
9:55 PM 41.0 °F - 37.8 °F 88% 30.04 in 10.0 mi Calm Calm - N/A   Overcast
10:15 PM 41.7 °F - 38.3 °F 88% 30.03 in 10.0 mi Calm Calm - N/A   Overcast
10:35 PM 42.1 °F - 39.2 °F 90% 30.03 in 10.0 mi Calm Calm - N/A   Overcast
10:55 PM 43.0 °F - 39.4 °F 87% 30.02 in 10.0 mi Calm Calm - N/A Rain Light Rain
11:15 PM 43.0 °F - 40.1 °F 90% 30.02 in 10.0 mi Calm Calm - N/A   Overcast
11:35 PM 43.2 °F - 40.6 °F 91% 30.02 in 10.0 mi Calm Calm - N/A   Overcast
11:55 PM 43.0 °F - 41.0 °F 93% 30.01 in 10.0 mi Calm Calm - N/A Rain Light Rain